This is the latest recevied weather packets stored in our database for station/object W8BS. If no packets are shown the sender has not sent any weather packets the latest 10 day(s).
| Time | Temp. | Humidity | Pressure | Rain* | Wind** | Luminosity | Snow |
|---|---|---|---|---|---|---|---|
| 1777491692 | 13.89° C | 99% | 1006.7 hPa | 3.05 mm | - | 42 W/m² | - |
| 1777491390 | 13.89° C | 99% | 1006.6 hPa | 3.05 mm | - | 40 W/m² | - |
| 1777491087 | 13.89° C | 99% | 1006.9 hPa | 6.1 mm | - | 35 W/m² | - |
| 1777490782 | 13.89° C | 99% | 1006.9 hPa | 6.1 mm | - | 33 W/m² | - |
| 1777490479 | 13.89° C | 99% | 1007.2 hPa | 8.89 mm | - | 28 W/m² | - |
| 1777490175 | 13.89° C | 99% | 1007.5 hPa | 10.67 mm | - | 29 W/m² | - |
| 1777489872 | 13.89° C | 99% | 1007.8 hPa | 4.32 mm | - | 26 W/m² | - |
| 1777489570 | 13.89° C | 99% | 1007.4 hPa | 7.11 mm | - | 57 W/m² | - |
| 1777489266 | 13.89° C | 99% | 1007.7 hPa | 14.99 mm | - | 63 W/m² | - |
| 1777488963 | 14.44° C | 99% | 1007.8 hPa | 16.76 mm | - | 51 W/m² | - |
| 1777488660 | 14.44° C | 99% | 1008.1 hPa | 18.03 mm | - | 18 W/m² | - |
| 1777488358 | 14.44° C | 99% | 1007.9 hPa | 10.67 mm | - | 18 W/m² | - |
| 1777488056 | 15° C | 99% | 1007.8 hPa | 0 mm | - | 21 W/m² | - |
| 1777487753 | 15° C | 99% | 1007.7 hPa | 0 mm | - | 31 W/m² | - |
| 1777487451 | 15.56° C | 98% | 1007.5 hPa | 1.27 mm | - | 43 W/m² | - |
| 1777487149 | 15.56° C | 97% | 1007 hPa | 3.05 mm | - | 115 W/m² | - |
| 1777486844 | 15.56° C | 97% | 1007.4 hPa | 1.78 mm | - | 167 W/m² | - |
| 1777486542 | 15.56° C | 96% | 1007.8 hPa | 0 mm | - | 112 W/m² | - |
| 1777486239 | 15.56° C | 95% | 1007.9 hPa | 0 mm | - | 86 W/m² | - |
| 1777485937 | 15.56° C | 95% | 1007.9 hPa | 1.27 mm | - | 134 W/m² | - |
| 1777485632 | 16.11° C | 93% | 1007.9 hPa | 3.05 mm | - | 176 W/m² | - |
| 1777485327 | 15.56° C | 91% | 1008.2 hPa | 0 mm | - | 141 W/m² | - |
| 1777485024 | 15.56° C | 92% | 1008.2 hPa | 0 mm | - | 77 W/m² | - |
| 1777484722 | 15.56° C | 93% | 1008.2 hPa | 0 mm | - | 129 W/m² | - |
| 1777484418 | 15.56° C | 90% | 1008.5 hPa | 0 mm | - | 160 W/m² | - |
* Rain latest hour (hover to see other rain measurements)
** Current wind speed in m/s (hover to see current wind gust speed)